• In Latvia
  • List of Countries
  • For 7 days
  • Water Temperature
  • Satellite Maps
  • Weather Map
  • Weather Widgets
  • user-avatar
    Login

    Hourly Weather Klagenfurt

    Today, 23 July, Sunday

    Time Temperature Precipitation Wind Pressure Humidity
    00:00 +18°C° 0 mm 1 mps 690 mmHg 87%
    01:00 +16°C° 0 mm 1 mps 690 mmHg 88%
    02:00 +16°C° 0 mm 1 mps 690 mmHg 88%
    03:00 +16°C° 0 mm 1 mps 690 mmHg 88%
    04:00 +16°C° 0 mm 1 mps 690 mmHg 88%
    05:00 +18°C° 0 mm 1 mps 690 mmHg 83%
    06:00 +20°C° 0 mm 1 mps 691 mmHg 79%
    07:00 +21°C° 0 mm 1 mps 691 mmHg 74%
    08:00 +23°C° 0.1 mm 1 mps 691 mmHg 67%
    09:00 +25°C° 0.1 mm 1 mps 692 mmHg 60%
    10:00 +28°C° 0.1 mm 1 mps 692 mmHg 53%
    11:00 +28°C° 0.6 mm 1 mps 692 mmHg 55%
    12:00 +28°C° 0.6 mm 1 mps 692 mmHg 56%
    13:00 +28°C° 0 mm 1 mps 692 mmHg 58%
    14:00 +27°C° 1.3 mm 1 mps 692 mmHg 60%
    15:00 +27°C° 1.3 mm 1 mps 691 mmHg 62%
    16:00 +26°C° 1.3 mm 1 mps 691 mmHg 63%
    17:00 +25°C° 1 mm 1 mps 691 mmHg 70%
    18:00 +23°C° 1 mm 1 mps 690 mmHg 76%
    19:00 +22°C° 1 mm 1 mps 690 mmHg 83%
    20:00 +21°C° 0.7 mm 1 mps 690 mmHg 85%
    21:00 +19°C° 0.7 mm 1 mps 690 mmHg 88%
    22:00 +18°C° 0.7 mm 1 mps 690 mmHg 91%
    23:00 +18°C° 0.7 mm 1 mps 690 mmHg 92%

    Tomorrow, 24 July, Monday

    Time Temperature Precipitation Wind Pressure Humidity
    00:00 +18°C° 0.7 mm 1 mps 689 mmHg 93%
    01:00 +16°C° 0.7 mm 1 mps 689 mmHg 94%
    02:00 +16°C° 1.2 mm 1 mps 688 mmHg 95%
    03:00 +16°C° 1.2 mm 1 mps 688 mmHg 96%
    04:00 +16°C° 1.2 mm 1 mps 688 mmHg 97%
    05:00 +18°C° 1.6 mm 1 mps 687 mmHg 96%
    06:00 +18°C° 1.6 mm 1 mps 687 mmHg 95%
    07:00 +19°C° 1.6 mm 1 mps 687 mmHg 94%
    08:00 +20°C° 1.1 mm 1 mps 687 mmHg 91%
    09:00 +21°C° 1.1 mm 1 mps 687 mmHg 87%
    10:00 +21°C° 1.1 mm 1 mps 687 mmHg 84%
    11:00 +22°C° 1.4 mm 1 mps 686 mmHg 84%
    12:00 +22°C° 1.4 mm 1 mps 686 mmHg 83%
    13:00 +22°C° 1.4 mm 1 mps 686 mmHg 83%
    14:00 +22°C° 2 mm 1 mps 686 mmHg 83%
    15:00 +21°C° 2 mm 1 mps 685 mmHg 84%
    16:00 +21°C° 2 mm 1 mps 685 mmHg 84%
    17:00 +20°C° 1.9 mm 1 mps 685 mmHg 87%
    18:00 +17°C° 1.9 mm 2 mps 684 mmHg 89%
    19:00 +16°C° 1.9 mm 2 mps 684 mmHg 92%
    20:00 +15°C° 1.1 mm 2 mps 684 mmHg 93%
    21:00 +14°C° 1.1 mm 2 mps 684 mmHg 94%
    22:00 +13°C° 1.1 mm 1 mps 684 mmHg 96%
    23:00 +13°C° 0.4 mm 1 mps 684 mmHg 95%

    Day after tomorrow, 25 July, Tuesday

    Time Temperature Precipitation Wind Pressure Humidity
    00:00 +13°C° 0.4 mm 1 mps 684 mmHg 95%
    01:00 +12°C° 0.4 mm 2 mps 684 mmHg 95%
    02:00 +12°C° 0 mm 1 mps 684 mmHg 95%
    03:00 +12°C° 0 mm 1 mps 684 mmHg 95%
    04:00 +12°C° 0 mm 1 mps 684 mmHg 94%
    05:00 +12°C° 0 mm 1 mps 684 mmHg 93%
    06:00 +13°C° 0 mm 1 mps 684 mmHg 91%
    07:00 +14°C° 0 mm 1 mps 684 mmHg 89%
    08:00 +16°C° 0 mm 1 mps 685 mmHg 75%
    09:00 +19°C° 0 mm 1 mps 685 mmHg 62%
    10:00 +20°C° 0 mm 2 mps 685 mmHg 48%
    11:00 +22°C° 0 mm 1 mps 685 mmHg 46%
    12:00 +23°C° 0 mm 1 mps 685 mmHg 43%
    13:00 +24°C° 0 mm 1 mps 685 mmHg 40%
    14:00 +23°C° 0.3 mm 1 mps 685 mmHg 46%
    15:00 +22°C° 0.3 mm 1 mps 685 mmHg 51%
    16:00 +21°C° 0.3 mm 1 mps 685 mmHg 57%
    17:00 +20°C° 0.8 mm 1 mps 685 mmHg 65%
    18:00 +18°C° 0.8 mm 1 mps 684 mmHg 74%
    19:00 +16°C° 0.8 mm 1 mps 684 mmHg 83%
    20:00 +15°C° 0.5 mm 1 mps 684 mmHg 85%
    21:00 +14°C° 0.5 mm 1 mps 684 mmHg 87%
    22:00 +13°C° 0.5 mm 1 mps 684 mmHg 89%
    23:00 +12°C° 0.2 mm 1 mps 684 mmHg 90%

    26 July, Wednesday

    Time Temperature Precipitation Wind Pressure Humidity
    00:00 +12°C° 0.2 mm 1 mps 684 mmHg 90%
    01:00 +12°C° 0.2 mm 1 mps 684 mmHg 91%
    02:00 +11°C° 0.1 mm 1 mps 684 mmHg 91%
    03:00 +11°C° 0.1 mm 1 mps 684 mmHg 91%
    04:00 +11°C° 0.1 mm 1 mps 684 mmHg 91%
    05:00 +12°C° 0 mm 1 mps 684 mmHg 88%
    06:00 +13°C° 0 mm 1 mps 684 mmHg 85%
    07:00 +13°C° 0 mm 0 mps 684 mmHg 83%
    08:00 +16°C° 0 mm 1 mps 684 mmHg 72%
    09:00 +19°C° 0 mm 1 mps 685 mmHg 62%
    10:00 +21°C° 0 mm 1 mps 685 mmHg 51%
    11:00 +21°C° 0.8 mm 1 mps 685 mmHg 55%
    12:00 +21°C° 0.8 mm 1 mps 685 mmHg 59%
    13:00 +21°C° 0.8 mm 1 mps 685 mmHg 63%
    14:00 +20°C° 1.6 mm 1 mps 685 mmHg 68%
    15:00 +19°C° 1.6 mm 1 mps 685 mmHg 74%
    16:00 +17°C° 1.6 mm 2 mps 684 mmHg 80%
    17:00 +16°C° 1.3 mm 1 mps 685 mmHg 84%
    18:00 +15°C° 1.3 mm 1 mps 685 mmHg 88%
    19:00 +13°C° 1.3 mm 1 mps 685 mmHg 92%
    20:00 +13°C° 0.6 mm 1 mps 685 mmHg 93%
    21:00 +12°C° 0.6 mm 1 mps 686 mmHg 94%
    22:00 +11°C° 0.6 mm 1 mps 686 mmHg 95%
    23:00 +10°C° 0.1 mm 1 mps 686 mmHg 95%

    27 July, Thursday

    Time Temperature Precipitation Wind Pressure Humidity
    00:00 +10°C° 0.1 mm 1 mps 687 mmHg 95%
    01:00 +10°C° 0.1 mm 1 mps 687 mmHg 94%
    02:00 +10°C° 0 mm 1 mps 687 mmHg 94%
    03:00 +9°C° 0 mm 1 mps 687 mmHg 94%
    04:00 +9°C° 0 mm 1 mps 687 mmHg 93%
    05:00 +10°C° 0 mm 1 mps 687 mmHg 91%
    06:00 +11°C° 0 mm 1 mps 688 mmHg 89%
    07:00 +12°C° 0 mm 1 mps 688 mmHg 86%
    08:00 +15°C° 0 mm 1 mps 689 mmHg 73%
    09:00 +19°C° 0 mm 1 mps 690 mmHg 59%
    10:00 +22°C° 0 mm 1 mps 690 mmHg 46%
    11:00 +23°C° 0 mm 1 mps 690 mmHg 43%
    12:00 +24°C° 0 mm 1 mps 690 mmHg 41%
    13:00 +25°C° 0 mm 1 mps 690 mmHg 39%
    14:00 +25°C° 0 mm 1 mps 690 mmHg 40%
    15:00 +25°C° 0 mm 1 mps 690 mmHg 41%
    16:00 +24°C° 0 mm 1 mps 689 mmHg 43%
    17:00 +23°C° 0 mm 1 mps 689 mmHg 52%
    18:00 +21°C° 0 mm 1 mps 689 mmHg 61%
    19:00 +17°C° 0 mm 0 mps 689 mmHg 70%
    20:00 +15°C° 0 mm 0 mps 689 mmHg 73%
    21:00 +14°C° 0 mm 0 mps 689 mmHg 76%
    22:00 +14°C° 0 mm 1 mps 689 mmHg 79%
    23:00 +14°C° 0 mm 1 mps 689 mmHg 80%

    28 July, Friday

    Time Temperature Precipitation Wind Pressure Humidity
    00:00 +13°C° 0 mm 1 mps 689 mmHg 81%
    01:00 +13°C° 0 mm 1 mps 689 mmHg 82%
    02:00 +13°C° 0 mm 1 mps 689 mmHg 82%
    03:00 +12°C° 0 mm 1 mps 689 mmHg 83%
    04:00 +12°C° 0 mm 1 mps 689 mmHg 83%
    05:00 +14°C° 0 mm 1 mps 690 mmHg 78%
    06:00 +15°C° 0 mm 0 mps 691 mmHg 73%
    07:00 +16°C° 0 mm 0 mps 691 mmHg 68%
    08:00 +19°C° 0 mm 0 mps 692 mmHg 60%
    09:00 +22°C° 0 mm 0 mps 692 mmHg 52%
    10:00 +24°C° 0 mm 0 mps 693 mmHg 44%
    11:00 +27°C° 0 mm 1 mps 692 mmHg 42%
    12:00 +27°C° 0 mm 1 mps 692 mmHg 40%
    13:00 +28°C° 0 mm 2 mps 692 mmHg 38%
    14:00 +28°C° 0 mm 2 mps 692 mmHg 40%
    15:00 +27°C° 0 mm 2 mps 692 mmHg 42%
    16:00 +27°C° 0 mm 2 mps 692 mmHg 44%
    17:00 +25°C° 0 mm 1 mps 692 mmHg 53%
    18:00 +23°C° 0 mm 1 mps 692 mmHg 62%
    19:00 +21°C° 0 mm 1 mps 691 mmHg 72%
    20:00 +19°C° 0 mm 1 mps 692 mmHg 75%
    21:00 +18°C° 0 mm 1 mps 692 mmHg 78%
    22:00 +16°C° 0 mm 1 mps 692 mmHg 81%
    23:00 +15°C° 0 mm 1 mps 692 mmHg 82%
    Show more